Regional Weather Roundup
Issued by NWS

Home | Current Version | Previous Version | Graphics & Text | Print | Product List | Glossary On
Versions: 1 2 3 4 5 6 7 8 9 10 11 12 13 14 15 16 17 18 19 20 21 22 23 24 25 26 27 28 29 30 31 32 33 34 35 36 37 38 39 40 41 42 43 44 45 46 47 48 49 50
231
ASUS45 KPSR 030310
RWRAZ

ARIZONA HOURLY REGIONAL WEATHER ROUNDUP
NATIONAL WEATHER SERVICE PHOENIX AZ
800 PM MST MON MAY 02 2016

NOTE: FAIR INDICATES FEW OR NO CLOUDS BELOW 12,000 FEET WITH NO
SIGNIFICANT WEATHER AND/OR OBSTRUCTIONS TO VISIBILITY.

AZZ001>003-036-030400-
NORTHWEST ARIZONA

CITY           SKY/WX    TMP DP  RH WIND       PRES   REMARKS
BULLHEAD CITY  CLEAR     81  37  21 NE10      29.94R
KINGMAN        PTCLDY    64  39  39 NE7       30.06R
$$

AZZ004>008-015-016-018-030400-
NORTH CENTRAL ARIZONA

CITY           SKY/WX    TMP DP  RH WIND       PRES   REMARKS
GRAND CANYON   PTCLDY    43  36  76 CALM      30.21R
WILLIAMS       CLEAR     43  34  70 SE6       30.26R
PRESCOTT       CLOUDY    56  39  53 CALM      30.13S
FLAGSTAFF      MOCLDY    39  39 100 NE3       30.21S
PAYSON         CLOUDY    59  37  44 N14G20    30.14R
PAGE           CLEAR     63  34  33 N5        30.13R
$$

AZZ009>014-017-030400-
NORTHEAST ARIZONA

CITY           SKY/WX    TMP DP  RH WIND       PRES   REMARKS
WINSLOW        CLOUDY    53  46  77 S8        30.17R
SAINT JOHNS    PTCLDY    52  39  61 SE7       30.14R
WINDOW ROCK    MOCLDY    48  38  68 CALM      30.20R
SHOW LOW       PTCLDY    46  37  71 CALM      30.18R
$$

AZZ023-030400-
GREATER PHOENIX AREA

CITY           SKY/WX    TMP DP  RH WIND       PRES   REMARKS
PHOENIX        PTCLDY    83  34  17 NW9G18    29.87R
BUCKEYE        CLEAR     77  36  22 CALM      29.90R
GLENDALE       PTCLDY    82  32  16 CALM      29.90R
LUKE AFB       CLEAR     80  36  20 W2        29.88R
DEER VALLEY    CLEAR     78  30  17 NW5       29.90R
SCOTTSDALE     CLEAR     80  31  16 NW3       29.91S
MESA-FALCON    PTCLDY   N/A N/A N/A W9        29.87S
MESA-GATEWAY   PTCLDY    79  32  18 NW5       29.90R
CHANDLER       PTCLDY    82  32  16 VRB6      29.89R
$$

AZZ027-028-030400-
SOUTHWEST MARICOPA COUNTY AND PINAL COUNTY

CITY           SKY/WX    TMP DP  RH WIND       PRES   REMARKS
CASA GRANDE    CLEAR    N/A N/A N/A MISG        N/A
GILA BEND      CLEAR     81  35  19 NW3       29.87R
$$

AZZ503-504-507>509-030400-
SOUTHEAST ARIZONA

CITY           SKY/WX    TMP DP  RH WIND       PRES   REMARKS
TUCSON         CLEAR     78  26  14 N6        29.94R
DAVIS-MONTHAN  CLEAR     76  27  16 NW8       29.93R
NOGALES        CLEAR     67  21  17 CALM      29.99R
SIERRA VISTA   CLEAR     65  23  20 W8        30.05R
DOUGLAS        CLEAR     68  26  20 E8        30.00R
SAFFORD        CLEAR     68  24  19 NE7       29.97R
$$

AZZ020-021-025-026-031-030400-
SOUTHWEST ARIZONA

CITY           SKY/WX    TMP DP  RH WIND       PRES   REMARKS
YUMA           PTCLDY    82  42  24 W6        29.86R
$$

CAZ031-033-041-043-047-048-061-030400-
SOUTHERN CALIFORNIA

CITY           SKY/WX    TMP DP  RH WIND       PRES   REMARKS
DOWNTOWN L.A.  CLEAR     62  54  74 CALM      29.95R
L.A. AIRPORT   PTCLDY    59  53  80 W14       29.95S
SAN DIEGO      PTCLDY    64  55  72 NW8       29.99R
BURBANK        CLEAR     72  49  44 SE7       29.94R
ONTARIO        PTCLDY    71  49  45 W12       29.94R
RIVERSIDE      CLEAR     72  48  42 W9        29.94R
PALM SPRINGS   PTCLDY    85  39  19 CALM      29.90R
EL CENTRO NAS  PTCLDY    83  38  20 SW5       29.87R
IMPERIAL       CLEAR     82  44  26 W5        29.85R
BLYTHE         CLEAR     84  38  19 CALM      29.88R
NEEDLES        CLEAR     82  36  19 N6        29.92R
$$

NVZ020-UTZ003-030400-
SOUTHERN NEVADA-UTAH

CITY           SKY/WX    TMP DP  RH WIND       PRES   REMARKS
LAS VEGAS      PTCLDY    76  34  21 NE12      29.97R
SALT LAKE CITY CLEAR     59  33  37 N7        30.15R
$$

NMZ009-TXZ055-030400-
NEW MEXICO-WEST TEXAS

CITY           SKY/WX    TMP DP  RH WIND       PRES   REMARKS
ALBUQUERQUE    MOCLDY    60  28  29 SW6       30.16R
EL PASO        PTCLDY    67  30  25 E8        30.08R
$$


........................KEY........................
SKY/WX - SKY CONDITION/WEATHER
TMP    - TEMPERATURE IN FAHRENHEIT
DP     - DEW POINT IN FAHRENHEIT
RH     - RELATIVE HUMIDITY IN PERCENT
WIND   - DIRECTION AND SPEED IN MILES PER HOUR (MPH)
VRB    - VARIABLE WIND DIRECTION
PRES   - MEAN SEA LEVEL PRESSURE IN INCHES OF MERCURY
         F - FALLING PRESSURE   R - RISING PRESSURE
         S - STEADY PRESSURE
VSB    - VISIBILITY IN MILES
HX     - HEAT INDEX IN FAHRENHEIT
WCI    - WIND CHILL INDEX IN FAHRENHEIT
TC     - TEMPERATURE IN CELSIUS WHICH IS ALSO KNOWN AS
         TEMPERATURE IN CENTIGRADE
AFB    - AIR FORCE BASE
         LUKE AFB IS LUKE AIR FORCE BASE
         DAVIS-MONTHAN IS DAVIS-MONTHAN AIR FORCE BASE
NAS    - NAVAL AIR STATION
         EL CENTRO NAS IS EL CENTRO NAVAL AIR STATION
N/A    - NOT AVAILABLE





USA.gov is the U.S. government's official web portal to all federal, state and local government web resources and services.